Simultaneous Nadir Overpasses (SNOs) Predictions

Prediction of SNOs between GOES-14 and AQUA Satellite Orbit:

Table of predicted SNOs for the next 14.0 days since TLE Epoch: 6/17/2023
Index Date Time (GOES-14) GOES-14 Lat,Lon AQUA Lat,Lon Distance(km) Time Diff (sec)
1 06/17/2023 08:53:28 -0.05,-108.69 -0.69,-105.71 338.46 80
2 06/17/2023 21:11:42 0.08,-108.60 -0.41,-110.77 247.22 80
3 06/19/2023 21:00:15 0.08,-108.60 0.34,-107.33 143.93 80
4 06/20/2023 09:18:21 -0.11,-108.68 0.68,-112.37 418.94 80
5 06/22/2023 09:04:13 -0.10,-108.68 -0.05,-108.92 27.43 80
6 06/24/2023 08:52:44 -0.09,-108.67 -0.75,-105.46 364.51 80
7 06/24/2023 21:10:58 0.12,-108.58 -0.33,-110.52 222.06 80
8 06/26/2023 20:59:29 0.11,-108.58 0.41,-107.07 170.40 80
9 06/27/2023 09:17:35 -0.14,-108.67 0.59,-112.11 391.14 80
10 06/29/2023 09:03:25 -0.14,-108.67 -0.12,-108.65 2.56 80
